Regional Weather Roundup
Issued by NWS

Home | Current Version | Previous Version | Text Only | Print | Product List | Glossary Off
Versions: 1 2 3 4 5 6 7 8 9 10 11 12 13 14 15 16 17 18 19 20 21 22 23 24 25 26 27 28 29 30 31 32 33 34 35 36 37 38 39 40 41 42 43 44 45 46 47 48 49 50

000
ASUS45 KCYS 071710
RWRWY

WYOMING REGIONAL WEATHER ROUNDUP
NATIONAL WEATHER SERVICE CHEYENNE WY
1100 AM MDT TUE JUL 07 2015

NOTE:  "FAIR" INDICATES FEW OR NO CLOUDS BELOW 12,000 FEET
WITH NO SIGNIFICANT WEATHER AND/OR OBSTRUCTIONS TO VISIBILITY.

WYZ001-071800-
YELLOWSTONE NATIONAL PARK

CITY           SKY/WX    TMP DP  RH WIND       PRES   REMARKS
LK YELLOWSTONE   N/A     60  47  61 VRB5      30.30F
W YELLOWSTONE  NOT AVBL

$$
WYZ002>013-054>058-071-098>099-071800-
NORTHERN WYOMING

CITY           SKY/WX    TMP DP  RH WIND       PRES   REMARKS
JACKSON        FAIR      66  50  55 CALM      30.21F
CODY           FAIR      70  52  52 NE5       30.13S
GREYBULL       FAIR      76  52  43 VRB3      30.06F
WORLAND        FAIR      68  54  60 CALM      30.08F
SHERIDAN       FAIR      73  52  47 CALM      30.08F
BUFFALO        FAIR      71  53  52 N5        30.13S
GILLETTE       FAIR      74  53  48 S13       30.10F
HULETT         FAIR      72  54  53 SW13      30.12S
NEWCASTLE      PTSUNNY   68  52  56 MISG      30.15F HAZE

$$
WYZ014>020-022>026-101>103-071800-
CENTRAL WYOMING

CITY           SKY/WX    TMP DP  RH WIND       PRES   REMARKS
BIG PINEY      CLOUDY    62  49  62 SW3       30.24F
PINEDALE       FAIR      63  48  59 CALM      30.24F
DUBOIS         FAIR      68  45  42 CALM      30.21F
LANDER         CLOUDY    68  52  56 CALM      30.15F
RIVERTON       PTSUNNY   66  54  65 SW5       30.16F
CASPER         FAIR      72  50  45 E7        30.14F
DOUGLAS        FAIR      69  55  60 SE9       30.15F HAZE

$$
WYZ021-027>030-104>119-071800-
SOUTHERN WYOMING

CITY           SKY/WX    TMP DP  RH WIND       PRES   REMARKS
EVANSTON       FAIR      63  52  67 N5        30.24F
KEMMERER       FAIR      64  50  59 CALM      30.26F
FORT BRIDGER   SUNNY     64  54  68 CALM      30.27F THUNDER
ROCK SPRINGS   FAIR      61  54  77 W8        30.23S
DIXON          FAIR      67  51  57 CALM      30.23F
RAWLINS        CLOUDY    62  53  72 CALM      30.23F
SARATOGA       CLOUDY    61  50  67 CALM      30.25S
LARAMIE        PTSUNNY   60  51  72 SE14      30.24F
CHEYENNE       CLOUDY    57  53  86 S12       30.23F FOG
TORRINGTON     CLOUDY    66  54  65 SE15      30.16F
PINE BLUFFS    LGT RAIN  55  54  94 S9        30.22S

$$



USA.gov is the U.S. government's official web portal to all federal, state and local government web resources and services.